Printer-friendly version
Follow the MPC on Twitter Follow the MPC on Facebook The MPC blog
Minor Planet Center

MPEC 2006-A49 : 2006 AN4

The following Minor Planet Electronic Circular may be linked-to from your own Web pages, but must not otherwise be redistributed electronically.

A form allowing access to any MPEC is at the bottom of this page.


Read MPEC 2006-A48 Read MPEC 2006-A50


M.P.E.C. 2006-A49                                Issued 2006 Jan.  9, 12:57 UT

     The Minor Planet Electronic Circulars contain information on unusual
         minor planets and routine data on comets.  They are published
   on behalf of Commission 20 of the International Astronomical Union by the
          Minor Planet Center, Smithsonian Astrophysical Observatory,
                          Cambridge, MA 02138, U.S.A.

                  Supported in part by the Brinson Foundation
                  Supported in part by the TABASGO Foundation
             Prepared using the Tamkin Foundation Computer Network

                              MPC@CFA.HARVARD.EDU
          URL http://cfa-www.harvard.edu/iau/mpc.html  ISSN 1523-6714

                                   2006 AN4

Observations:
     K06A04N* C2006 01 08.41263 09 34 31.04 +11 21 49.0          19.6 V EA049G96
     K06A04N  C2006 01 08.41899 09 34 32.08 +11 21 55.2          19.8 V EA049G96
     K06A04N  C2006 01 08.42534 09 34 33.16 +11 22 01.2          19.9 V EA049G96
     K06A04N  C2006 01 08.43169 09 34 34.24 +11 22 07.3          19.8 V EA049G96
     K06A04N  C2006 01 08.48030 09 34 42.56 +11 22 53.7          19.7 V EA049G96
     K06A04N  C2006 01 08.48477 09 34 43.32 +11 22 58.0          19.4 V EA049G96
     K06A04N  C2006 01 08.48933 09 34 44.07 +11 23 02.6          19.8 V EA049G96
     K06A04N  C2006 01 09.15964 09 36 46.45 +11 33 56.9          19   R EA049461
     K06A04N  C2006 01 09.16034 09 36 46.58 +11 33 57.6                 EA049461
     K06A04N  C2006 01 09.16104 09 36 46.70 +11 33 58.1                 EA049461
     K06A04N  C2006 01 09.16175 09 36 46.84 +11 33 59.4                 EA049461
     K06A04N  C2006 01 09.16244 09 36 46.95 +11 33 59.8                 EA049461
     K06A04N  C2006 01 09.16315 09 36 47.08 +11 34 00.5                 EA049461
     K06A04N  C2006 01 09.16384 09 36 47.22 +11 34 01.4                 EA049461
     K06A04N  C2006 01 09.16455 09 36 47.35 +11 34 02.1                 EA049461
     K06A04N  C2006 01 09.16525 09 36 47.48 +11 34 02.8                 EA049461
     K06A04N  C2006 01 09.16596 09 36 47.59 +11 34 03.6                 EA049461
     K06A04N  C2006 01 09.35714 09 37 24.52 +11 37 25.9          19.8 R EA049854
     K06A04N  C2006 01 09.36672 09 37 26.14 +11 37 34.3          19.8 R EA049854

Observer details:
461 Szeged University, Piszkesteto Stn. (Konkoly).  Observer K. Sarneczky.
    1.02-m Ritchey-Chretien + CCD.
854 Sabino Canyon Observatory, Tucson.  Observer J. E. McGaha.  0.36-m f/10.0
    Schmidt-Cassegrain + CCD.
G96 Mt. Lemmon Survey.  Observer E. J. Christensen.  Measurers E. C. Beshore,
    E. J. Christensen, G. J. Garradd, A. D. Grauer, R. E. Hill, R. A. Kowalski,
    S. M. Larson, R. H. McNaught.  1.5-m reflector + CCD.

Orbital elements:
2006 AN4                                                 Earth MOID = 0.1216 AU
Epoch 2006 Mar. 6.0 TT = JDT 2453800.5                  MPC
M 358.18849              (2000.0)            P               Q
n   0.34363790     Peri.   58.03108     -0.98829457     -0.02886975
a   2.0186856      Node   119.91868     -0.01965678     -0.94964855
e   0.4896077      Incl.    9.95263     +0.15128600     -0.31198426
P   2.87           H   20.7           G   0.15           U   9
Residuals in seconds of arc
060108 G96  0.4+  0.1-    060109 461  0.2-  0.1-    060109 461  0.2+  0.2+
060108 G96  0.2-  0.0     060109 461  0.1-  0.1-    060109 461  0.2+  0.2+
060108 G96  0.2-  0.1-    060109 461  0.2-  0.3-    060109 461  0.0   0.3+
060108 G96  0.2-  0.1-    060109 461  0.0   0.3+    060109 854  0.6+  0.4+
060108 G96  0.3+  0.1-    060109 461  0.2-  0.0     060109 854  0.3-  1.1-
060108 G96  0.2+  0.0     060109 461  0.1-  0.0
060108 G96  0.3-  0.3+    060109 461  0.1+  0.2+

Ephemeris:
2006 AN4                 a,e,i = 2.02, 0.49, 10                  q = 1.0303
Date    TT    R. A. (2000) Decl.     Delta      r     Elong.  Phase     V
2006 01 05    09 24.80   +10 33.4    0.335    1.270   144.0    27.1    20.1
2006 01 15    09 56.81   +13 33.2    0.258    1.210   148.0    25.5    19.3
2006 01 25    10 44.64   +18 50.0    0.198    1.157   147.9    26.9    18.7
2006 02 04    12 00.15   +26 14.0    0.158    1.110   139.3    35.4    18.4
2006 02 14    13 46.43   +32 06.5    0.144    1.072   122.9    50.7    18.5
2006 02 24    15 30.71   +32 21.6    0.155    1.046   107.2    64.7    19.0
2006 03 06    16 42.91   +29 11.6    0.181    1.032    97.8    72.2    19.6
2006 03 16    17 27.70   +25 34.2    0.212    1.032    94.1    74.0    20.0
2006 03 26    17 55.97   +22 23.4    0.243    1.045    94.5    72.1    20.2
2006 04 05    18 13.63   +19 39.7    0.270    1.071    97.7    67.8    20.4
2006 04 15    18 23.41   +17 09.0    0.293    1.108   103.2    61.9    20.5
2006 04 25    18 26.32   +14 37.6    0.313    1.154   110.6    54.7    20.5
2006 05 05    18 22.69   +11 49.3    0.330    1.207   119.9    46.4    20.5
2006 05 15    18 13.35   +08 31.1    0.350    1.266   130.6    37.3    20.4
2006 05 25    17 59.84   +04 40.9    0.375    1.329   142.2    27.8    20.4
2006 06 04    17 44.53   +00 27.8    0.412    1.395   153.2    19.1    20.5
2006 06 14    17 30.25   -03 47.3    0.465    1.462   160.5    13.4    20.6
2006 06 24    17 19.06   -07 44.1    0.535    1.530   160.1    13.1    21.0
2006 07 04    17 12.08   -11 11.1    0.622    1.598   153.6    16.4    21.6

Timothy B. Spahr             (C) Copyright 2006 MPC           M.P.E.C. 2006-A49

Read MPEC 2006-A48 Read MPEC 2006-A50


MPEC number:

Enter an MPEC number in one of the following forms:

  • 1997-B01 (the full form)
  • J97B01 (the packed version of the full form)
  • B01 (the abbreviated form)

Valid HTML 4.01!